Wind_Speed
10 9 8 7 7 7 7 8 6 6 7 7 8 8 9 10 11 9 10 11 11 11 11 12 12 12 13 14 14 15 14 14 14 13 12 12 11 10 9 9 9 8 7
9 7 6 6 5 5 5 4 5 6 6 6 6 7 8 9 10 11 11 12 13 13 13 13 13 14 14 14 15 16 16 17 17 16 15 14 14 13 12 12 11 11 10
6 5 4 4 4 4 4 4 4 4 4 4 4 5 6 7 9 10 11 12 12 13 13 14 14 15 16 16 16 17 17 18 18 18 18 17 17 16 15 14 14 13 12
5 4 4 4 3 3 2 3 3 3 4 4 4 5 6 7 9 10 11 12 12 14 14 15 15 16 17 17 17 18 18 18 19 19 19 20 20 19 18 17 16 16 15
5 4 4 3 2 2 2 2 2 3 4 4 5 6 7 7 9 10 10 11 12 13 14 15 16 17 17 17 18 18 20 20 21 20 20 21 21 21 21 21 19 18 18
5 5 4 3 2 2 2 2 3 3 4 5 6 7 7 8 9 9 10 11 12 13 14 15 16 16 17 18 19 19 20 21 22 22 22 22 22 22 23 23 23 22 20
6 5 3 1 0 1 2 2 3 4 5 6 6 7 8 8 9 10 10 11 12 13 14 14 15 16 17 18 19 20 20 21 22 23 23 23 23 23 24 25 25 24 23
5 3 2 1 0 1 2 3 3 4 5 6 7 7 8 8 9 10 11 11 12 13 14 15 16 17 18 18 19 19 20 22 23 23 24 24 25 25 25 25 27 26 26
4 4 3 1 0 1 2 3 4 5 6 7 7 8 9 9 9 10 11 12 13 14 15 16 16 17 18 18 19 21 21 22 23 24 25 25 25 25 25 26 26 28 28
5 4 2 1 0 2 3 3 4 6 7 8 8 9 10 11 11 11 12 13 14 15 15 16 17 17 18 19 19 21 22 22 23 24 25 25 25 25 26 26 27 28 29
6 4 2 1 1 2 3 4 5 7 7 8 9 10 11 12 12 13 13 14 14 15 16 17 18 18 19 19 20 21 22 23 23 24 25 26 27 27 27 27 28 28 29
5 4 2 1 2 3 4 5 6 7 8 9 10 11 12 13 14 15 15 16 16 16 17 18 19 19 20 20 21 22 23 24 24 25 26 27 28 28 29 29 29 29 29
5 3 3 3 3 4 5 6 7 8 9 10 12 13 14 15 16 16 17 17 18 18 18 18 19 20 21 21 22 23 23 24 25 26 27 27 29 30 30 30 31 31 31
5 5 5 5 5 6 7 8 9 10 11 13 14 15 16 17 18 18 19 19 19 20 20 20 20 21 22 23 23 24 24 25 26 27 28 28 29 30 31 32 32 33 32
7 7 7 7 8 9 10 11 12 13 14 15 16 17 19 19 20 21 21 21 21 21 22 22 22 22 23 23 24 24 25 26 26 27 28 29 30 30 31 32 33 33 34
9 9 10 10 11 12 13 14 14 16 17 18 19 20 21 21 22 22 23 23 23 23 24 24 24 24 24 24 25 25 25 26 27 28 28 29 30 31 32 33 33 34 35
11 12 13 14 15 15 16 17 18 19 20 21 22 23 23 23 23 24 24 24 25 25 25 26 26 26 26 26 26 26 26 26 27 28 29 29 30 31 32 33 34 34 35
14 15 16 17 18 18 19 20 21 22 23 24 24 25 25 25 25 26 26 26 26 26 27 27 28 28 28 28 28 27 28 28 28 28 29 30 30 31 32 33 34 35 36
17 18 19 20 20 21 22 23 24 25 26 26 26 27 27 26 26 27 27 28 28 28 28 29 29 30 30 30 29 29 29 29 28 29 29 30 31 32 32 33 34 35 36
20 21 22 23 23 24 25 26 27 27 28 28 28 28 28 28 28 28 29 29 30 30 30 30 31 31 31 31 31 31 31 30 30 30 30 30 31 32 33 34 34 35 37
23 24 25 25 26 27 28 28 29 29 30 30 30 30 30 30 30 30 31 31 31 32 32 32 32 33 33 33 33 33 32 31 31 32 31 31 31 32 33 34 35 36 37
25 26 27 27 28 29 30 30 31 31 31 31 32 32 32 32 32 33 33 33 33 34 34 34 34 35 35 35 35 35 34 33 33 33 33 32 33 32 33 34 35 36 37
27 28 29 29 30 31 32 32 33 33 33 33 33 33 33 34 34 34 35 35 36 36 36 36 36 36 37 37 37 36 36 35 34 35 35 34 34 34 33 34 35 36 37
30 30 31 32 33 33 34 34 35 35 35 35 35 35 35 36 37 37 37 37 37 37 38 38 37 38 38 38 38 38 37 37 36 36 37 36 35 35 35 35 36 37 37
31 33 34 34 34 34 35 36 37 36 36 36 37 37 38 38 38 39 39 39 38 38 39 39 38 38 39 39 39 39 39 39 38 38 39 38 37 36 36 36 36 37 37
32 33 34 34 35 36 36 37 37 38 38 39 39 39 39 39 39 40 40 40 39 40 40 40 41 41 41 40 41 41 41 40 40 39 40 40 38 38 37 37 37 37 37
Wind_Direction
263 268 269 271 275 273 266 265 270 270 267 260 259 263 260 263 267 264 268 270 269 268 266 264 263 263 262 259 256 253 253 253 252 251 250 247 245 243 243 244 243 242 241
266 268 267 262 268 274 275 276 273 278 281 276 268 270 271 272 271 269 270 271 269 267 266 266 267 266 265 265 262 257 256 254 253 252 250 248 247 246 244 242 243 244 243
264 259 261 263 272 272 272 279 280 286 294 286 278 283 285 282 279 280 280 277 276 272 270 269 269 269 268 266 265 262 259 257 254 252 252 250 249 248 247 244 242 243 244
253 247 251 263 271 264 276 292 297 305 306 302 297 294 294 289 286 285 285 284 281 275 274 274 273 273 272 269 265 263 261 258 256 255 253 253 251 249 248 247 244 243 243
240 239 241 245 259 267 280 306 319 323 319 312 309 308 304 298 293 290 290 289 286 282 279 278 278 277 275 272 270 267 264 263 261 257 255 254 253 250 247 246 246 245 244
228 229 236 242 269 294 311 323 330 338 339 332 323 317 314 308 303 298 296 295 293 290 287 285 283 281 278 274 273 271 268 265 264 262 260 257 254 252 249 247 245 246 245
217 218 219 241 296 338 345 353 345 343 339 335 329 325 322 318 313 307 304 301 297 294 292 291 286 284 283 279 276 274 270 266 265 263 262 262 258 255 252 249 246 245 245
211 197 180 166 107 350 349 343 343 344 342 339 335 333 332 329 324 320 315 310 305 301 298 295 290 288 285 282 280 277 272 269 266 264 262 262 260 257 257 252 248 247 246
193 186 185 187 253 325 329 333 342 346 346 345 342 341 340 337 331 326 320 315 311 308 304 299 295 292 290 286 282 279 277 274 271 268 264 261 259 259 259 255 252 249 248
185 182 184 185 283 323 323 323 332 339 341 342 341 340 338 335 334 330 325 321 317 312 308 305 301 297 294 291 287 282 279 277 273 271 267 263 260 259 260 258 255 252 249
188 182 180 196 313 318 318 322 327 333 336 337 339 340 338 335 333 329 327 323 320 316 312 308 304 302 298 295 291 287 284 280 276 273 270 266 263 262 261 258 258 256 253
190 191 204 272 312 314 319 324 328 331 333 334 336 336 335 333 332 330 327 325 322 319 315 311 307 304 300 298 294 290 286 283 280 275 273 269 266 263 261 259 258 258 257
207 216 244 272 296 312 322 326 326 327 328 328 328 329 329 329 328 326 325 323 322 321 318 315 311 307 303 300 296 292 289 286 283 279 275 272 268 265 263 261 259 257 256
227 246 263 280 293 304 310 313 315 317 319 320 320 321 322 324 324 323 322 321 320 319 318 316 313 309 306 303 299 295 291 288 285 282 277 274 270 266 264 263 261 258 256
241 253 266 276 286 294 300 304 307 310 312 314 314 315 316 317 318 319 318 318 318 317 316 315 314 312 309 306 303 299 295 291 287 284 280 276 272 268 265 263 262 260 258
249 259 269 278 286 293 297 300 302 305 308 310 311 312 313 314 314 314 315 315 315 315 314 314 314 313 311 307 304 301 298 295 291 287 283 279 274 271 268 265 263 261 259
260 267 275 281 287 292 295 297 299 302 305 307 308 309 309 310 310 311 311 312 312 313 313 312 312 312 311 308 306 303 300 297 294 290 287 283 278 273 270 267 265 263 261
267 272 278 283 287 291 293 295 297 300 302 304 305 306 305 306 306 307 308 309 309 310 310 310 311 311 310 308 306 304 303 299 295 292 289 285 281 277 273 269 266 264 262
272 276 280 284 287 290 292 294 296 298 300 301 302 302 302 302 303 304 305 306 306 306 307 308 308 308 308 308 306 304 303 301 297 294 291 287 283 279 275 272 268 265 263
275 278 282 284 287 289 291 293 294 296 298 299 299 300 300 299 300 301 303 304 304 304 305 305 306 307 307 306 305 304 302 300 298 296 293 289 285 281 277 273 270 267 264
278 281 283 284 287 289 290 292 293 294 296 296 297 297 297 297 297 299 300 301 302 302 302 304 305 305 305 304 303 303 301 300 298 296 294 293 288 283 278 275 272 269 266
279 281 283 285 287 288 289 290 291 292 293 294 295 295 295 295 297 298 299 299 300 301 301 302 303 304 304 303 303 302 301 300 298 296 295 293 291 286 281 276 272 270 268
280 282 284 285 287 288 289 289 290 291 291 292 293 294 294 295 296 297 297 298 299 300 300 301 302 303 303 303 302 302 301 301 299 296 295 293 290 287 284 280 275 271 268
281 282 283 284 286 287 287 288 289 290 291 292 293 294 294 295 296 296 296 297 298 299 299 299 300 301 302 302 302 301 300 299 298 296 294 293 290 288 285 282 278 273 269
282 283 284 284 285 286 287 288 289 289 291 292 292 293 293 294 295 295 296 297 297 297 298 298 298 299 300 300 300 300 299 298 297 295 293 292 289 287 285 283 280 276 272
284 284 284 284 284 286 287 288 288 289 291 291 291 292 293 294 294 295 295 295 296 296 296 297 297 298 299 299 299 299 299 297 295 293 292 291 289 286 284 282 280 277 273
Height
5886 5886 5886 5887 5887 5887 5888 5888 5889 5889 5889 5890 5890 5891 5891 5891 5891 5893 5894 5894 5895 5895 5896 5897 5898 5899 5900 5901 5902 5903 5904 5905 5907 5908 5908 5909 5910 5911 5912 5913 5914 5915 5916
5884 5885 5885 5885 5886 5886 5886 5887 5887 5888 5888 5888 5889 5889 5890 5890 5890 5891 5892 5892 5892 5893 5894 5895 5896 5897 5897 5898 5899 5900 5901 5902 5904 5905 5906 5907 5908 5909 5910 5911 5912 5914 5915
5882 5883 5884 5884 5885 5885 5886 5886 5886 5886 5887 5887 5888 5888 5888 5889 5889 5889 5890 5889 5890 5891 5891 5892 5893 5894 5894 5895 5896 5897 5898 5899 5900 5902 5903 5904 5906 5907 5908 5909 5910 5911 5913
5881 5882 5882 5883 5883 5884 5885 5885 5886 5886 5886 5886 5887 5887 5887 5887 5887 5887 5887 5887 5887 5888 5889 5889 5890 5890 5891 5891 5892 5893 5894 5895 5896 5898 5899 5901 5902 5903 5905 5906 5907 5909 5910
5880 5880 5881 5882 5882 5883 5884 5884 5885 5885 5885 5885 5885 5886 5886 5885 5885 5885 5885 5885 5885 5885 5886 5886 5886 5887 5887 5888 5888 5889 5890 5891 5892 5893 5895 5896 5897 5899 5900 5902 5904 5905 5907
5879 5880 5880 5881 5882 5882 5883 5884 5884 5884 5884 5884 5884 5884 5884 5884 5883 5883 5883 5883 5882 5882 5883 5883 5883 5883 5883 5884 5884 5885 5885 5886 5888 5889 5890 5891 5893 5894 5896 5897 5899 5901 5903
5878 5879 5880 5880 5881 5882 5882 5883 5883 5883 5883 5883 5883 5883 5882 5882 5881 5881 5880 5880 5880 5880 5880 5880 5880 5879 5879 5880 5880 5880 5881 5882 5883 5884 5885 5886 5888 5889 5890 5892 5894 5896 5898
5877 5878 5879 5880 5880 5881 5882 5882 5882 5882 5882 5882 5882 5881 5881 5881 5880 5879 5878 5878 5877 5877 5876 5876 5876 5876 5876 5876 5876 5876 5876 5877 5877 5878 5880 5881 5882 5884 5885 5886 5888 5891 5893
5876 5878 5879 5879 5880 5881 5881 5881 5881 5881 5881 5881 5880 5880 5879 5879 5878 5877 5876 5876 5875 5874 5873 5873 5872 5872 5871 5871 5871 5871 5871 5872 5872 5873 5874 5875 5876 5878 5879 5881 5882 5884 5887
5876 5877 5878 5879 5879 5880 5880 5880 5880 5880 5880 5880 5879 5878 5878 5877 5876 5875 5875 5873 5872 5871 5870 5869 5868 5868 5867 5867 5867 5866 5866 5866 5866 5867 5867 5869 5870 5871 5873 5874 5876 5878 5880
5875 5876 5877 5878 5878 5879 5879 5879 5879 5879 5879 5878 5878 5877 5876 5875 5874 5873 5872 5871 5870 5868 5867 5865 5864 5863 5863 5862 5862 5861 5861 5861 5861 5861 5861 5862 5863 5865 5866 5868 5870 5871 5873
5875 5876 5876 5877 5877 5878 5878 5878 5878 5877 5877 5877 5876 5875 5874 5873 5872 5871 5869 5868 5867 5865 5864 5862 5860 5859 5858 5857 5857 5856 5855 5855 5855 5855 5855 5855 5856 5858 5859 5861 5862 5864 5866
5874 5875 5876 5876 5877 5877 5877 5877 5876 5876 5876 5875 5874 5873 5872 5871 5869 5868 5867 5865 5863 5861 5860 5858 5856 5854 5853 5852 5851 5850 5849 5848 5848 5848 5848 5848 5849 5850 5851 5853 5855 5856 5858
5873 5874 5875 5875 5875 5876 5876 5875 5875 5874 5874 5873 5872 5871 5869 5868 5866 5865 5863 5861 5860 5858 5856 5854 5852 5850 5848 5846 5845 5844 5843 5842 5841 5841 5841 5841 5841 5842 5843 5845 5846 5848 5850
5872 5872 5873 5873 5874 5874 5874 5873 5873 5872 5871 5870 5869 5868 5866 5865 5863 5861 5859 5857 5856 5853 5851 5849 5848 5845 5843 5841 5839 5838 5836 5835 5834 5833 5833 5833 5833 5834 5835 5836 5838 5839 5841
5870 5870 5871 5871 5871 5871 5871 5870 5870 5869 5868 5867 5866 5864 5862 5861 5859 5857 5855 5853 5851 5849 5846 5844 5842 5840 5838 5835 5833 5832 5830 5828 5827 5826 5825 5825 5825 5825 5826 5827 5828 5830 5832
5867 5868 5868 5868 5868 5868 5867 5867 5866 5865 5864 5863 5861 5860 5858 5856 5854 5852 5850 5848 5846 5843 5841 5838 5836 5834 5832 5829 5827 5825 5823 5821 5820 5818 5817 5817 5816 5816 5817 5818 5819 5820 5822
5864 5864 5864 5864 5864 5864 5863 5862 5862 5860 5859 5858 5856 5855 5853 5851 5849 5847 5845 5842 5840 5838 5836 5833 5830 5828 5825 5823 5820 5818 5816 5814 5812 5811 5809 5808 5807 5807 5807 5808 5809 5810 5811
5860 5860 5860 5860 5860 5859 5858 5857 5856 5855 5854 5852 5851 5849 5847 5845 5843 5841 5839 5836 5834 5832 5829 5827 5824 5821 5819 5816 5813 5811 5808 5806 5804 5802 5801 5800 5798 5798 5798 5798 5798 5799 5801
5856 5856 5855 5855 5854 5853 5853 5852 5850 5849 5847 5846 5844 5842 5841 5839 5836 5834 5832 5830 5827 5825 5822 5820 5817 5815 5812 5808 5806 5803 5801 5798 5796 5794 5792 5791 5790 5788 5788 5788 5788 5789 5790
5850 5850 5849 5849 5848 5847 5846 5845 5843 5842 5840 5839 5837 5835 5833 5831 5829 5827 5825 5822 5820 5817 5815 5812 5810 5807 5804 5801 5798 5795 5793 5790 5787 5785 5783 5781 5780 5779 5778 5777 5777 5777 5778
5844 5844 5843 5842 5841 5840 5839 5838 5836 5834 5833 5831 5829 5827 5825 5823 5821 5819 5817 5814 5811 5809 5806 5804 5801 5798 5795 5792 5789 5786 5783 5781 5779 5776 5773 5772 5770 5768 5767 5767 5766 5766 5766
5837 5836 5835 5835 5834 5832 5831 5829 5828 5826 5824 5823 5821 5819 5817 5815 5813 5811 5808 5805 5803 5800 5797 5794 5792 5788 5785 5782 5779 5776 5773 5770 5768 5765 5762 5761 5759 5758 5756 5755 5755 5755 5755
5829 5829 5828 5826 5825 5824 5822 5821 5819 5817 5816 5814 5812 5810 5808 5805 5803 5801 5798 5796 5794 5790 5787 5785 5782 5779 5775 5772 5768 5766 5763 5760 5757 5754 5751 5750 5748 5746 5745 5744 5743 5743 5743
5821 5820 5819 5818 5816 5815 5813 5812 5810 5808 5807 5805 5803 5800 5798 5796 5793 5790 5788 5786 5783 5780 5777 5774 5772 5769 5765 5762 5758 5755 5752 5749 5747 5744 5740 5738 5737 5735 5733 5732 5731 5730 5730
5812 5810 5809 5808 5807 5805 5804 5802 5800 5798 5797 5795 5793 5790 5788 5785 5783 5780 5777 5774 5772 5769 5766 5763 5760 5757 5754 5751 5747 5743 5740 5737 5735 5732 5729 5726 5724 5722 5722 5721 5719 5718 5718